Location: Shenandoah County Park
(38.9356°N, 78.4524°W)
Time: 15:54:45
(UTC-05:00)

Vanguard 2 Rocket - Pass Details

Date: 05 December 2023
Orbit: 553 x 3297 km, 32.9° (Epoch: 12 November)

Event Time Altitude Azimuth Distance (km) Brightness Sun altitude
Rises 14:16:34 0° 235° (SW) 5,990 12.3 21.3°
Reaches altitude 10° 14:20:07 10° 231° (SW) 5,277 12.4 20.9°
Maximum altitude 14:36:46 59° 157° (SSE) 3,555 10.4 19.1°
Drops below altitude 10° 14:56:10 10° 85° (E) 6,044 10.7 16.7°
Sets 15:00:33 0° 82° (E) 6,869 10.9 16.1°
